Location: ??? ???
(33.4974°N, 35.4618°E)
Time: 12:28:48
(UTC+00:00)

Meteor 2-15 Rocket - Pass Details

Date: 29 October 2020
Orbit: 938 x 957 km, 82.5° (Epoch: 26 November)

Event Time Altitude Azimuth Distance (km) Brightness Sun altitude
Rises 15:45:41 0° 174° (S) 3,619 7.5 -12.4°
Reaches altitude 10° 15:48:12 10° 171° (S) 2,677 6.8 -13.0°
Maximum altitude 15:54:12 59° 93° (E) 1,092 4.5 -14.2°
Drops below altitude 10° 16:00:14 10° 15° (NNE) 2,687 6.6 -15.4°
Sets 16:02:45 0° 12° (NNE) 3,634 7.3 -16.0°
